Time,TemperatureF,DewpointF,PressureIn,WindDirection,WindDirectionDegrees,WindSpeedMPH,WindSpeedGustMPH,Humidity,HourlyPrecipIn,Conditions,Clouds,dailyrainin,SoftwareType,DateUTC
2013-02-26 00:01:00,37.0,33.0,30.29,North,352,1.0,3.0,86,0.00,,,0.07,,2013-02-26 08:01:00,
2013-02-26 00:11:00,37.0,33.0,30.29,North,352,1.0,3.0,86,0.00,,,0.07,,2013-02-26 08:11:00,
2013-02-26 00:21:00,37.0,34.0,30.29,North,352,1.0,2.0,87,0.00,,,0.07,,2013-02-26 08:21:00,
2013-02-26 00:31:00,37.0,34.0,30.29,North,352,1.0,3.0,87,0.00,,,0.07,,2013-02-26 08:31:00,
2013-02-26 00:41:00,37.0,34.0,30.29,North,352,1.0,3.0,87,0.00,,,0.07,,2013-02-26 08:41:00,
2013-02-26 00:52:00,37.0,34.0,30.28,North,352,0.0,2.0,89,0.00,,,0.07,,2013-02-26 08:52:00,
2013-02-26 01:01:00,36.0,33.0,30.28,North,352,1.0,3.0,89,0.00,,,0.07,,2013-02-26 09:01:00,
2013-02-26 01:11:00,36.0,33.0,30.28,North,352,1.0,3.0,89,0.00,,,0.07,,2013-02-26 09:11:00,
2013-02-26 01:21:00,36.0,33.0,30.29,North,352,1.0,3.0,90,0.00,,,0.07,,2013-02-26 09:21:00,
2013-02-26 01:31:00,36.0,33.0,30.30,North,352,1.0,2.0,90,0.00,,,0.04,,2013-02-26 09:31:00,
2013-02-26 01:42:00,36.0,33.0,30.30,North,352,1.0,2.0,90,0.00,,,0.04,,2013-02-26 09:42:00,
2013-02-26 01:52:00,36.0,34.0,30.29,North,352,0.0,3.0,91,0.00,,,0.04,,2013-02-26 09:52:00,
2013-02-26 02:01:00,36.0,34.0,30.31,North,357,1.0,4.0,91,0.00,,,0.04,,2013-02-26 10:01:00,
2013-02-26 02:11:00,36.0,34.0,30.31,North,357,1.0,4.0,91,0.00,,,0.04,,2013-02-26 10:11:00,
2013-02-26 02:21:00,36.0,34.0,30.31,North,357,1.0,2.0,91,0.00,,,0.04,,2013-02-26 10:21:00,
2013-02-26 02:31:00,36.0,34.0,30.31,North,357,0.0,3.0,91,0.00,,,0.01,,2013-02-26 10:31:00,
2013-02-26 02:41:00,36.0,34.0,30.31,North,357,0.0,3.0,91,0.00,,,0.01,,2013-02-26 10:41:00,
2013-02-26 02:52:00,36.0,34.0,30.31,North,357,1.0,3.0,91,0.00,,,0.01,,2013-02-26 10:52:00,
2013-02-26 03:01:00,36.0,34.0,30.31,North,357,0.0,2.0,91,0.00,,,0.01,,2013-02-26 11:01:00,
2013-02-26 03:11:00,36.0,34.0,30.31,North,357,0.0,2.0,91,0.00,,,0.01,,2013-02-26 11:11:00,
2013-02-26 03:21:00,35.0,33.0,30.29,North,357,0.0,1.0,91,0.00,,,0.01,,2013-02-26 11:21:00,
2013-02-26 03:31:00,35.0,33.0,30.30,North,357,0.0,3.0,92,0.00,,,0.00,,2013-02-26 11:31:00,
2013-02-26 03:41:00,35.0,33.0,30.30,North,357,0.0,3.0,92,0.00,,,0.00,,2013-02-26 11:41:00,
2013-02-26 03:52:00,36.0,34.0,30.30,North,357,1.0,2.0,92,0.00,,,0.00,,2013-02-26 11:52:00,
2013-02-26 04:01:00,36.0,34.0,30.31,North,357,1.0,2.0,92,0.00,,,0.00,,2013-02-26 12:01:00,
2013-02-26 04:11:00,36.0,34.0,30.31,North,357,1.0,2.0,92,0.00,,,0.00,,2013-02-26 12:11:00,
2013-02-26 04:22:00,36.0,34.0,30.30,North,357,1.0,3.0,92,0.00,,,0.00,,2013-02-26 12:22:00,
2013-02-26 04:32:00,36.0,34.0,30.30,North,357,1.0,2.0,92,0.00,,,0.00,,2013-02-26 12:32:00,
2013-02-26 04:42:00,36.0,34.0,30.30,North,357,1.0,2.0,92,0.00,,,0.00,,2013-02-26 12:42:00,
2013-02-26 04:52:00,37.0,35.0,30.31,North,357,0.0,3.0,92,0.00,,,0.00,,2013-02-26 12:52:00,
2013-02-26 05:01:00,37.0,35.0,30.31,North,357,0.0,2.0,92,0.00,,,0.00,,2013-02-26 13:01:00,
2013-02-26 05:11:00,37.0,35.0,30.31,North,357,0.0,2.0,92,0.00,,,0.00,,2013-02-26 13:11:00,
2013-02-26 05:21:00,37.0,35.0,30.32,North,357,0.0,4.0,92,0.00,,,0.00,,2013-02-26 13:21:00,
2013-02-26 05:31:00,38.0,36.0,30.32,SSE,158,0.0,5.0,92,0.00,,,0.00,,2013-02-26 13:31:00,
2013-02-26 05:42:00,38.0,36.0,30.32,SSE,158,0.0,5.0,92,0.00,,,0.00,,2013-02-26 13:42:00,
2013-02-26 05:52:00,38.0,35.0,30.32,SSE,153,1.0,3.0,90,0.00,,,0.00,,2013-02-26 13:52:00,
2013-02-26 06:01:00,38.0,35.0,30.32,SSE,153,0.0,1.0,90,0.00,,,0.00,,2013-02-26 14:01:00,
2013-02-26 06:11:00,38.0,35.0,30.32,SSE,153,0.0,1.0,90,0.00,,,0.00,,2013-02-26 14:11:00,
2013-02-26 06:21:00,38.0,35.0,30.32,SSE,153,1.0,2.0,90,0.00,,,0.00,,2013-02-26 14:21:00,
2013-02-26 06:31:00,38.0,35.0,30.32,SSE,153,0.0,2.0,90,0.00,,,0.00,,2013-02-26 14:31:00,
2013-02-26 06:41:00,38.0,35.0,30.32,SSE,153,0.0,2.0,90,0.00,,,0.00,,2013-02-26 14:41:00,
2013-02-26 06:52:00,39.0,36.0,30.32,SSE,153,2.0,3.0,88,0.00,,,0.00,,2013-02-26 14:52:00,
2013-02-26 07:01:00,39.0,35.0,30.32,SSE,151,1.0,6.0,86,0.00,,,0.00,,2013-02-26 15:01:00,
2013-02-26 07:11:00,39.0,35.0,30.32,SSE,151,1.0,6.0,86,0.00,,,0.00,,2013-02-26 15:11:00,
2013-02-26 07:21:00,39.0,35.0,30.32,SSE,151,0.0,3.0,86,0.00,,,0.00,,2013-02-26 15:21:00,
2013-02-26 07:31:00,39.0,35.0,30.32,SSE,151,1.0,5.0,85,0.00,,,0.00,,2013-02-26 15:31:00,
2013-02-26 07:41:00,39.0,35.0,30.32,SSE,151,1.0,5.0,85,0.00,,,0.00,,2013-02-26 15:41:00,
2013-02-26 07:52:00,40.0,35.0,30.32,SSE,151,0.0,4.0,83,0.00,,,0.00,,2013-02-26 15:52:00,
2013-02-26 08:01:00,40.0,35.0,30.32,SSE,150,0.0,4.0,82,0.00,,,0.00,,2013-02-26 16:01:00,
2013-02-26 08:11:00,40.0,35.0,30.32,SSE,150,0.0,4.0,82,0.00,,,0.00,,2013-02-26 16:11:00,
2013-02-26 08:22:00,40.0,35.0,30.33,SSE,150,0.0,3.0,82,0.00,,,0.00,,2013-02-26 16:22:00,
2013-02-26 08:31:00,40.0,35.0,30.33,SSE,150,2.0,3.0,81,0.00,,,0.00,,2013-02-26 16:31:00,
2013-02-26 08:41:00,40.0,35.0,30.33,SSE,150,2.0,3.0,81,0.00,,,0.00,,2013-02-26 16:41:00,
2013-02-26 08:52:00,41.0,35.0,30.33,SE,143,1.0,4.0,79,0.00,,,0.00,,2013-02-26 16:52:00,
2013-02-26 09:01:00,41.0,34.0,30.34,ESE,120,1.0,5.0,77,0.00,,,0.00,,2013-02-26 17:01:00,
2013-02-26 09:11:00,41.0,34.0,30.34,ESE,120,1.0,5.0,77,0.00,,,0.00,,2013-02-26 17:11:00,
2013-02-26 09:21:00,41.0,34.0,30.33,SE,129,1.0,4.0,77,0.00,,,0.00,,2013-02-26 17:21:00,
2013-02-26 09:32:00,42.0,35.0,30.32,SE,144,2.0,6.0,75,0.00,,,0.00,,2013-02-26 17:32:00,
2013-02-26 09:41:00,42.0,35.0,30.32,SE,144,2.0,6.0,75,0.00,,,0.00,,2013-02-26 17:41:00,
2013-02-26 09:52:00,42.0,34.0,30.33,SSE,159,2.0,8.0,72,0.00,,,0.00,,2013-02-26 17:52:00,
2013-02-26 10:01:00,42.0,35.0,30.32,SE,138,3.0,6.0,75,0.00,,,0.00,,2013-02-26 18:01:00,
2013-02-26 10:12:00,42.0,35.0,30.32,SE,138,3.0,6.0,75,0.00,,,0.00,,2013-02-26 18:12:00,
2013-02-26 10:21:00,42.0,35.0,30.32,SSE,148,2.0,3.0,76,0.00,,,0.00,,2013-02-26 18:21:00,
2013-02-26 10:31:00,43.0,35.0,30.32,SE,142,2.0,5.0,73,0.00,,,0.00,,2013-02-26 18:31:00,
2013-02-26 10:42:00,43.0,35.0,30.32,SE,142,2.0,5.0,73,0.00,,,0.00,,2013-02-26 18:42:00,
2013-02-26 10:52:00,44.0,34.0,30.31,SE,136,2.0,5.0,69,0.00,,,0.00,,2013-02-26 18:52:00,
2013-02-26 11:01:00,45.0,35.0,30.31,SE,134,1.0,4.0,68,0.00,,,0.00,,2013-02-26 19:01:00,
2013-02-26 11:11:00,45.0,35.0,30.31,SE,134,1.0,4.0,68,0.00,,,0.00,,2013-02-26 19:11:00,
2013-02-26 11:22:00,45.0,34.0,30.30,East,94,2.0,11.0,66,0.00,,,0.00,,2013-02-26 19:22:00,
2013-02-26 11:31:00,45.0,34.0,30.29,SE,145,2.0,8.0,66,0.00,,,0.00,,2013-02-26 19:31:00,
2013-02-26 11:41:00,45.0,34.0,30.29,SE,145,2.0,8.0,66,0.00,,,0.00,,2013-02-26 19:41:00,
2013-02-26 11:52:00,45.0,34.0,30.29,SSE,156,2.0,5.0,66,0.00,,,0.00,,2013-02-26 19:52:00,
2013-02-26 12:01:00,45.0,34.0,30.29,ESE,123,1.0,6.0,66,0.00,,,0.00,,2013-02-26 20:01:00,
2013-02-26 12:11:00,45.0,34.0,30.29,ESE,123,1.0,6.0,66,0.00,,,0.00,,2013-02-26 20:11:00,
2013-02-26 12:21:00,45.0,34.0,30.29,SE,132,0.0,5.0,64,0.00,,,0.00,,2013-02-26 20:21:00,
2013-02-26 12:31:00,45.0,34.0,30.27,South,178,1.0,5.0,66,0.00,,,0.00,,2013-02-26 20:31:00,
2013-02-26 12:41:00,45.0,34.0,30.27,South,178,1.0,5.0,66,0.00,,,0.00,,2013-02-26 20:41:00,
2013-02-26 12:52:00,46.0,33.0,30.27,SSE,158,5.0,9.0,60,0.00,,,0.00,,2013-02-26 20:52:00,
2013-02-26 13:01:00,46.0,32.0,30.27,SE,127,3.0,6.0,59,0.00,,,0.00,,2013-02-26 21:01:00,
2013-02-26 13:11:00,46.0,32.0,30.27,SE,127,3.0,6.0,59,0.00,,,0.00,,2013-02-26 21:11:00,
2013-02-26 13:21:00,47.0,32.0,30.25,ESE,120,1.0,8.0,56,0.00,,,0.00,,2013-02-26 21:21:00,
2013-02-26 13:31:00,47.0,32.0,30.25,NNW,346,1.0,5.0,56,0.00,,,0.00,,2013-02-26 21:31:00,
2013-02-26 13:41:00,47.0,32.0,30.25,NNW,346,1.0,5.0,56,0.00,,,0.00,,2013-02-26 21:41:00,
2013-02-26 13:51:00,47.0,33.0,30.25,SSE,151,1.0,5.0,58,0.00,,,0.00,,2013-02-26 21:51:00,
2013-02-26 14:01:00,47.0,33.0,30.24,SE,145,1.0,4.0,57,0.00,,,0.00,,2013-02-26 22:01:00,
2013-02-26 14:11:00,48.0,33.0,30.23,SSE,151,1.0,4.0,55,0.00,,,0.00,,2013-02-26 22:11:00,
2013-02-26 14:21:00,48.0,33.0,30.23,SSE,151,1.0,4.0,55,0.00,,,0.00,,2013-02-26 22:21:00,
2013-02-26 14:31:00,47.0,31.0,30.24,SE,145,0.0,6.0,54,0.00,,,0.00,,2013-02-26 22:31:00,
2013-02-26 14:41:00,47.0,31.0,30.24,SE,145,0.0,6.0,54,0.00,,,0.00,,2013-02-26 22:41:00,
2013-02-26 14:51:00,47.0,32.0,30.23,SSE,160,2.0,5.0,55,0.00,,,0.00,,2013-02-26 22:51:00,
2013-02-26 15:01:00,47.0,32.0,30.23,SSE,155,0.0,3.0,56,0.00,,,0.00,,2013-02-26 23:01:00,
2013-02-26 15:11:00,47.0,32.0,30.23,SSE,155,0.0,3.0,56,0.00,,,0.00,,2013-02-26 23:11:00,
2013-02-26 15:21:00,47.0,31.0,30.22,ENE,68,1.0,7.0,54,0.00,,,0.00,,2013-02-26 23:21:00,
2013-02-26 15:31:00,47.0,33.0,30.23,SSE,152,0.0,7.0,57,0.00,,,0.00,,2013-02-26 23:31:00,
2013-02-26 15:41:00,47.0,33.0,30.23,SSE,152,0.0,7.0,57,0.00,,,0.00,,2013-02-26 23:41:00,
2013-02-26 15:52:00,47.0,32.0,30.23,SE,145,3.0,6.0,55,0.00,,,0.00,,2013-02-26 23:52:00,
2013-02-26 16:01:00,47.0,33.0,30.23,SSE,165,1.0,4.0,57,0.00,,,0.00,,2013-02-27 00:01:00,
2013-02-26 16:11:00,47.0,33.0,30.23,SSE,165,1.0,4.0,57,0.00,,,0.00,,2013-02-27 00:11:00,
2013-02-26 16:21:00,47.0,33.0,30.23,SSE,149,1.0,6.0,58,0.00,,,0.00,,2013-02-27 00:21:00,
2013-02-26 16:31:00,46.0,32.0,30.22,ESE,121,2.0,-999.0,58,-99.99,,,-99.99,,2013-02-27 00:31:00,
2013-02-26 16:41:00,46.0,32.0,30.22,ESE,121,2.0,-999.0,58,-99.99,,,-99.99,,2013-02-27 00:41:00,
2013-02-26 16:52:00,46.0,32.0,30.21,SE,128,3.0,-999.0,59,-99.99,,,-99.99,,2013-02-27 00:52:00,
2013-02-26 17:01:00,46.0,32.0,30.22,SSE,160,2.0,-999.0,57,-99.99,,,-99.99,,2013-02-27 01:01:00,
2013-02-26 17:11:00,46.0,32.0,30.22,SSE,160,2.0,-999.0,57,-99.99,,,-99.99,,2013-02-27 01:11:00,
2013-02-26 17:21:00,46.0,32.0,30.21,SE,143,2.0,-999.0,58,-99.99,,,-99.99,,2013-02-27 01:21:00,
2013-02-26 17:31:00,46.0,33.0,30.21,SE,146,3.0,-999.0,61,-99.99,,,-99.99,,2013-02-27 01:31:00,
2013-02-26 17:41:00,46.0,33.0,30.21,SE,146,3.0,-999.0,61,-99.99,,,-99.99,,2013-02-27 01:41:00,
2013-02-26 17:52:00,45.0,33.0,30.21,SE,146,3.0,-999.0,62,-99.99,,,-99.99,,2013-02-27 01:52:00,
2013-02-26 18:01:00,45.0,34.0,30.20,SE,146,0.0,-999.0,65,-99.99,,,-99.99,,2013-02-27 02:01:00,
2013-02-26 18:12:00,45.0,34.0,30.20,SE,146,0.0,-999.0,65,-99.99,,,-99.99,,2013-02-27 02:12:00,
2013-02-26 18:21:00,44.0,34.0,30.20,SE,146,0.0,-999.0,69,-99.99,,,-99.99,,2013-02-27 02:21:00,
2013-02-26 18:31:00,44.0,34.0,30.20,SE,146,0.0,-999.0,67,-99.99,,,-99.99,,2013-02-27 02:31:00,
2013-02-26 18:41:00,44.0,34.0,30.20,SE,146,0.0,-999.0,67,-99.99,,,-99.99,,2013-02-27 02:41:00,
2013-02-26 18:52:00,44.0,35.0,30.21,SE,146,1.0,-999.0,71,-99.99,,,-99.99,,2013-02-27 02:52:00,
2013-02-26 19:01:00,44.0,36.0,30.21,SE,146,0.0,-999.0,72,-99.99,,,-99.99,,2013-02-27 03:01:00,
2013-02-26 19:11:00,44.0,36.0,30.21,SE,146,0.0,-999.0,72,-99.99,,,-99.99,,2013-02-27 03:11:00,
2013-02-26 19:21:00,43.0,34.0,30.20,SE,146,1.0,-999.0,71,-99.99,,,-99.99,,2013-02-27 03:21:00,
2013-02-26 19:31:00,43.0,35.0,30.20,SE,146,1.0,-999.0,73,-99.99,,,-99.99,,2013-02-27 03:31:00,
2013-02-26 19:41:00,43.0,35.0,30.20,SE,146,1.0,-999.0,73,-99.99,,,-99.99,,2013-02-27 03:41:00,
2013-02-26 19:52:00,43.0,36.0,30.20,SE,146,0.0,-999.0,75,-99.99,,,-99.99,,2013-02-27 03:52:00,
2013-02-26 20:01:00,44.0,36.0,30.20,SSE,150,2.0,-999.0,72,-99.99,,,-99.99,,2013-02-27 04:01:00,
2013-02-26 20:11:00,44.0,36.0,30.20,SSE,150,2.0,-999.0,72,-99.99,,,-99.99,,2013-02-27 04:11:00,
2013-02-26 20:21:00,44.0,36.0,30.20,North,351,0.0,-999.0,72,-99.99,,,-99.99,,2013-02-27 04:21:00,
2013-02-26 20:31:00,43.0,34.0,30.19,SSE,156,1.0,-999.0,71,-99.99,,,-99.99,,2013-02-27 04:31:00,
2013-02-26 20:41:00,43.0,34.0,30.19,SSE,156,1.0,-999.0,71,-99.99,,,-99.99,,2013-02-27 04:41:00,
2013-02-26 20:51:00,43.0,35.0,30.19,SSE,154,0.0,-999.0,73,-99.99,,,-99.99,,2013-02-27 04:51:00,
2013-02-26 21:01:00,43.0,35.0,30.19,SE,139,2.0,-999.0,72,-99.99,,,-99.99,,2013-02-27 05:01:00,
2013-02-26 21:11:00,43.0,35.0,30.19,SE,139,2.0,-999.0,72,-99.99,,,-99.99,,2013-02-27 05:11:00,
2013-02-26 21:21:00,43.0,35.0,30.20,SE,139,0.0,-999.0,74,-99.99,,,-99.99,,2013-02-27 05:21:00,
2013-02-26 21:32:00,43.0,35.0,30.20,SE,139,0.0,-999.0,74,-99.99,,,-99.99,,2013-02-27 05:32:00,
2013-02-26 21:41:00,43.0,35.0,30.20,SE,139,0.0,-999.0,74,-99.99,,,-99.99,,2013-02-27 05:41:00,
2013-02-26 21:52:00,43.0,36.0,30.19,SE,139,1.0,-999.0,77,-99.99,,,-99.99,,2013-02-27 05:52:00,
2013-02-26 22:02:00,43.0,37.0,30.20,SE,139,0.0,-999.0,79,-99.99,,,-99.99,,2013-02-27 06:02:00,
2013-02-26 22:11:00,43.0,37.0,30.20,SE,139,0.0,-999.0,79,-99.99,,,-99.99,,2013-02-27 06:11:00,
2013-02-26 22:21:00,42.0,36.0,30.19,SE,139,2.0,-999.0,79,-99.99,,,-99.99,,2013-02-27 06:21:00,
2013-02-26 22:32:00,43.0,36.0,30.19,SSE,151,1.0,-999.0,75,-99.99,,,-99.99,,2013-02-27 06:32:00,
2013-02-26 22:41:00,43.0,36.0,30.19,SSE,151,1.0,-999.0,75,-99.99,,,-99.99,,2013-02-27 06:41:00,
2013-02-26 22:52:00,43.0,36.0,30.19,SSE,151,0.0,-999.0,75,-99.99,,,-99.99,,2013-02-27 06:52:00,
2013-02-26 23:01:00,43.0,36.0,30.18,SSE,151,0.0,-999.0,77,-99.99,,,-99.99,,2013-02-27 07:01:00,
2013-02-26 23:11:00,43.0,36.0,30.18,SSE,151,0.0,-999.0,77,-99.99,,,-99.99,,2013-02-27 07:11:00,
2013-02-26 23:21:00,43.0,36.0,30.18,SSE,151,0.0,-999.0,77,-99.99,,,-99.99,,2013-02-27 07:21:00,
2013-02-26 23:31:00,43.0,36.0,30.19,SE,141,1.0,-999.0,75,-99.99,,,-99.99,,2013-02-27 07:31:00,
2013-02-26 23:41:00,43.0,36.0,30.19,SE,141,1.0,-999.0,75,-99.99,,,-99.99,,2013-02-27 07:41:00,
2013-02-26 23:52:00,43.0,37.0,30.19,SE,141,0.0,-999.0,80,-99.99,,,-99.99,,2013-02-27 07:52:00,